GW3424 Weather Reports


Display with metric or nautical units.
time (UTC)temp
F
wind
direction
speed
MPH
gust
MPH
rain 1hr
in
rain 24hr
in
rain mn
in
humidity
%
barometer
mb
20260508213051 96 360 11.0 21.0 0.00 0.00 0.00 16 972.6
20260508212549 96 360 12.0 21.0 0.00 0.00 0.00 14 972.8
20260508212049 96 360 10.0 17.0 0.00 0.00 0.00 14 972.8
20260508211548 96 360 12.0 17.0 0.00 0.00 0.00 15 972.9
20260508211048 96 360 5.0 19.0 0.00 0.00 0.00 16 973.2
20260508210552 96 360 11.0 19.0 0.00 0.00 0.00 18 973.2
20260508210051 96 360 13.0 18.0 0.00 0.00 0.00 17 973.3
20260508205549 96 360 10.0 16.0 0.00 0.00 0.00 15 973.3
20260508205048 96 360 10.0 17.0 0.00 0.00 0.00 15 973.5
20260508204549 96 360 8.0 17.0 0.00 0.00 0.00 15 973.6
20260508204053 95 360 10.0 16.0 0.00 0.00 0.00 15 973.6
20260508203548 95 360 9.0 17.0 0.00 0.00 0.00 15 973.6
20260508203049 96 360 10.0 20.0 0.00 0.00 0.00 16 973.8
20260508202552 96 360 13.0 20.0 0.00 0.00 0.00 15 973.9
20260508202048 96 360 5.0 12.0 0.00 0.00 0.00 15 973.7
20260508201549 95 360 2.0 12.0 0.00 0.00 0.00 15 973.8
20260508201048 95 360 6.0 18.0 0.00 0.00 0.00 15 974.0
20260508200548 95 360 11.0 18.0 0.00 0.00 0.00 15 974.1
20260508200049 95 360 4.0 14.0 0.00 0.00 0.00 15 974.1
20260508195548 95 360 10.0 14.0 0.00 0.00 0.00 15 974.3
20260508195049 95 360 8.0 14.0 0.00 0.00 0.00 15 974.3
20260508194602 94 360 10.0 14.0 0.00 0.00 0.00 15 974.2
20260508194049 94 360 6.0 11.0 0.00 0.00 0.00 15 974.3
20260508193548 93 360 2.0 9.0 0.00 0.00 0.00 16 974.4
20260508193105 94 360 3.0 8.0 0.00 0.00 0.00 18 974.5
20260508192548 94 360 2.0 9.0 0.00 0.00 0.00 17 974.5
20260508192052 93 360 2.0 9.0 0.00 0.00 0.00 17 974.6
20260508191557 94 360 3.0 6.0 0.00 0.00 0.00 17 974.7
20260508191048 94 360 2.0 6.0 0.00 0.00 0.00 18 974.8
20260508190549 94 360 3.0 9.0 0.00 0.00 0.00 17 974.9
20260508190108 94 360 3.0 9.0 0.00 0.00 0.00 17 974.8
20260508185548 93 360 0.0 6.0 0.00 0.00 0.00 18 975.1
20260508185048 92 360 3.0 6.0 0.00 0.00 0.00 18 975.1
20260508184549 92 360 1.0 3.0 0.00 0.00 0.00 18 975.2
20260508184048 90 360 0.0 8.0 0.00 0.00 0.00 19 975.3
20260508183548 89 360 4.0 8.0 0.00 0.00 0.00 20 975.4
20260508183048 89 360 3.0 10.0 0.00 0.00 0.00 20 975.5
20260508182549 89 360 2.0 10.0 0.00 0.00 0.00 20 975.6
20260508182048 89 360 5.0 9.0 0.00 0.00 0.00 20 975.6
20260508181553 88 360 3.0 10.0 0.00 0.00 0.00 21 975.6
20260508181048 88 360 6.0 10.0 0.00 0.00 0.00 21 975.8
20260508180553 88 360 6.0 9.0 0.00 0.00 0.00 20 975.9
20260508180049 89 360 5.0 13.0 0.00 0.00 0.00 20 976.0
20260508175548 90 360 8.0 13.0 0.00 0.00 0.00 20 976.0
20260508175049 90 360 2.0 9.0 0.00 0.00 0.00 19 976.0
20260508174550 90 135 3.0 9.0 0.00 0.00 0.00 19 976.0
20260508174049 90 171 0.0 2.0 0.00 0.00 0.00 20 976.0
20260508173548 88 360 0.0 10.0 0.00 0.00 0.00 20 976.1
20260508173048 86 360 4.0 10.0 0.00 0.00 0.00 21 976.2
20260508172551 86 360 1.0 9.0 0.00 0.00 0.00 21 976.0
20260508172048 85 360 5.0 9.0 0.00 0.00 0.00 22 976.1
20260508171549 85 360 3.0 8.0 0.00 0.00 0.00 22 976.3
20260508171048 84 360 3.0 10.0 0.00 0.00 0.00 22 976.3
20260508170548 84 360 2.0 10.0 0.00 0.00 0.00 23 976.3
20260508170048 84 360 5.0 9.0 0.00 0.00 0.00 22 976.3
20260508165548 84 360 0.0 10.0 0.00 0.00 0.00 22 976.2
20260508165048 83 360 3.0 10.0 0.00 0.00 0.00 23 976.4
20260508164548 83 360 6.0 10.0 0.00 0.00 0.00 23 976.4
20260508164048 82 360 5.0 9.0 0.00 0.00 0.00 23 976.4
20260508163551 82 360 5.0 8.0 0.00 0.00 0.00 23 976.4
20260508163100 82 360 4.0 8.0 0.00 0.00 0.00 24 976.5
20260508162549 81 360 4.0 8.0 0.00 0.00 0.00 24 976.5
20260508162051 81 360 4.0 10.0 0.00 0.00 0.00 25 976.5
20260508161556 81 360 6.0 10.0 0.00 0.00 0.00 25 976.4
20260508161048 81 360 4.0 9.0 0.00 0.00 0.00 26 976.6
20260508160548 81 360 4.0 8.0 0.00 0.00 0.00 26 976.6
20260508160048 81 360 4.0 6.0 0.00 0.00 0.00 25 976.5
20260508155548 81 360 2.0 6.0 0.00 0.00 0.00 26 976.6
20260508155048 80 360 3.0 6.0 0.00 0.00 0.00 26 976.5
20260508154548 80 360 3.0 6.0 0.00 0.00 0.00 26 976.6
20260508154048 79 360 2.0 6.0 0.00 0.00 0.00 26 976.5
20260508153549 78 360 4.0 8.0 0.00 0.00 0.00 26 976.5
20260508153100 78 360 5.0 8.0 0.00 0.00 0.00 27 976.5
20260508152552 78 360 4.0 8.0 0.00 0.00 0.00 27 976.6
20260508152048 77 360 5.0 8.0 0.00 0.00 0.00 28 976.6
20260508151549 77 360 3.0 8.0 0.00 0.00 0.00 28 976.6
20260508151050 76 360 5.0 9.0 0.00 0.00 0.00 29 976.8
20260508150549 76 360 6.0 9.0 0.00 0.00 0.00 29 976.9
20260508150049 76 360 7.0 11.0 0.00 0.00 0.00 29 976.7
20260508145552 75 360 8.0 11.0 0.00 0.00 0.00 29 976.7
20260508145048 75 360 6.0 11.0 0.00 0.00 0.00 30 976.7
20260508144548 74 360 9.0 12.0 0.00 0.00 0.00 30 976.7
20260508144048 74 360 8.0 12.0 0.00 0.00 0.00 30 976.7
20260508143548 73 360 8.0 14.0 0.00 0.00 0.00 31 976.7
20260508143108 73 360 10.0 14.0 0.00 0.00 0.00 31 976.7
20260508142548 73 360 9.0 14.0 0.00 0.00 0.00 31 976.6
20260508142048 72 360 11.0 15.0 0.00 0.00 0.00 32 976.6
20260508141556 72 360 11.0 16.0 0.00 0.00 0.00 32 976.6
20260508141049 71 360 12.0 16.0 0.00 0.00 0.00 32 976.5
20260508140550 70 360 11.0 13.0 0.00 0.00 0.00 33 976.4
20260508140055 69 360 7.0 11.0 0.00 0.00 0.00 35 976.5
20260508135548 67 360 7.0 10.0 0.00 0.00 0.00 36 976.5
20260508135049 67 360 6.0 9.0 0.00 0.00 0.00 37 976.3
20260508134549 66 360 5.0 8.0 0.00 0.00 0.00 37 976.2
20260508134048 66 360 6.0 10.0 0.00 0.00 0.00 37 976.1
20260508133548 65 360 5.0 10.0 0.00 0.00 0.00 37 976.0
20260508133049 66 360 8.0 10.0 0.00 0.00 0.00 36 975.9
20260508132548 67 360 7.0 9.0 0.00 0.00 0.00 35 975.9
20260508132048 68 360 6.0 10.0 0.00 0.00 0.00 33 975.8
20260508131548 68 360 7.0 10.0 0.00 0.00 0.00 33 975.8
20260508131049 68 360 7.0 9.0 0.00 0.00 0.00 32 975.6
20260508130551 68 360 8.0 10.0 0.00 0.00 0.00 32 975.5
20260508130048 68 360 8.0 10.0 0.00 0.00 0.00 32 975.4
20260508125548 69 360 6.0 10.0 0.00 0.00 0.00 31 975.4
20260508125048 70 360 8.0 10.0 0.00 0.00 0.00 30 975.4
20260508124548 70 360 8.0 10.0 0.00 0.00 0.00 30 975.3
20260508124048 71 360 8.0 9.0 0.00 0.00 0.00 30 975.1
20260508123548 71 360 7.0 9.0 0.00 0.00 0.00 29 975.0
20260508123051 71 360 8.0 9.0 0.00 0.00 0.00 29 974.8
20260508122548 72 360 5.0 9.0 0.00 0.00 0.00 29 974.9
20260508122048 72 360 6.0 10.0 0.00 0.00 0.00 28 974.9
20260508121548 72 360 8.0 11.0 0.00 0.00 0.00 29 975.0
20260508121049 71 360 8.0 11.0 0.00 0.00 0.00 29 974.9
20260508120548 71 360 7.0 9.0 0.00 0.00 0.00 28 975.0
20260508120059 71 360 8.0 9.0 0.00 0.00 0.00 28 975.0
20260508115553 71 360 7.0 9.0 0.00 0.00 0.00 27 974.9
20260508115052 71 360 8.0 9.0 0.00 0.00 0.00 27 974.8
20260508114556 72 360 6.0 10.0 0.00 0.00 0.00 27 974.8
20260508114048 72 360 7.0 10.0 0.00 0.00 0.00 26 974.8
20260508113548 72 360 7.0 12.0 0.00 0.00 0.00 26 974.9
20260508113050 72 360 8.0 13.0 0.00 0.00 0.00 26 974.8
20260508112549 73 360 9.0 13.0 0.00 0.00 0.00 26 974.8
20260508112048 72 360 9.0 13.0 0.00 0.00 0.00 25 974.7
20260508111548 72 360 8.0 11.0 0.00 0.00 0.00 25 974.7
20260508111048 72 360 6.0 13.0 0.00 0.00 0.00 25 974.7
20260508110548 72 360 8.0 13.0 0.00 0.00 0.00 25 974.7
20260508110053 72 360 8.0 10.0 0.00 0.00 0.00 25 974.7
20260508105551 72 360 5.0 9.0 0.00 0.00 0.00 25 974.7
20260508105047 73 360 5.0 9.0 0.00 0.00 0.00 25 974.6
20260508104549 73 360 2.0 4.0 0.00 0.00 0.00 25 974.5
20260508104048 73 360 3.0 8.0 0.00 0.00 0.00 25 974.4
20260508103548 73 360 5.0 8.0 0.00 0.00 0.00 25 974.4
20260508103051 74 360 4.0 8.0 0.00 0.00 0.00 25 974.4
20260508102549 75 360 4.0 6.0 0.00 0.00 0.00 26 974.4
20260508102048 76 360 4.0 6.0 0.00 0.00 0.00 25 974.5
20260508101553 76 360 0.0 3.0 0.00 0.00 0.00 24 974.5
20260508101049 77 360 0.0 2.0 0.00 0.00 0.00 23 974.4
20260508100553 78 360 1.0 5.0 0.00 0.00 0.00 23 974.5
20260508100104 79 360 3.0 6.0 0.00 0.00 0.00 23 974.4
20260508095548 80 360 3.0 6.0 0.00 0.00 0.00 22 974.4
20260508095048 82 360 3.0 6.0 0.00 0.00 0.00 21 974.2
20260508094549 83 360 3.0 13.0 0.00 0.00 0.00 19 974.1
20260508094048 84 360 3.0 13.0 0.00 0.00 0.00 17 974.2
20260508093549 84 360 6.0 11.0 0.00 0.00 0.00 17 974.1
20260508093045 84 360 3.0 11.0 0.00 0.00 0.00 17 974.0
20260508092545 84 360 5.0 11.0 0.00 0.00 0.00 17 974.0
20260508092048 84 360 3.0 12.0 0.00 0.00 0.00 17 974.0
20260508091604 85 360 6.0 14.0 0.00 0.00 0.00 17 974.0
20260508091045 85 360 4.0 11.0 0.00 0.00 0.00 17 973.9
20260508090548 85 360 1.0 12.0 0.00 0.00 0.00 16 974.0
20260508090048 85 360 2.0 17.0 0.00 0.00 0.00 16 973.9
20260508085544 85 360 5.0 17.0 0.00 0.00 0.00 16 973.8
20260508085044 86 360 8.0 14.0 0.00 0.00 0.00 16 973.8
20260508084544 86 360 6.0 18.0 0.00 0.00 0.00 16 973.8
20260508084049 86 360 6.0 24.0 0.00 0.00 0.00 16 973.8
20260508083545 86 360 13.0 24.0 0.00 0.00 0.00 16 974.0
20260508083044 86 360 13.0 23.0 0.00 0.00 0.00 16 973.9
20260508082546 86 360 10.0 21.0 0.00 0.00 0.00 16 973.9
20260508082045 87 360 12.0 21.0 0.00 0.00 0.00 16 973.9
20260508081606 87 360 11.0 19.0 0.00 0.00 0.00 15 973.8
20260508081045 87 360 11.0 19.0 0.00 0.00 0.00 15 973.8
20260508080544 87 360 12.0 21.0 0.00 0.00 0.00 15 973.8
20260508080050 87 360 10.0 21.0 0.00 0.00 0.00 15 973.8
20260508075545 87 360 11.0 19.0 0.00 0.00 0.00 15 973.8
20260508075047 87 360 11.0 22.0 0.00 0.00 0.00 15 973.8
20260508074545 87 360 11.0 22.0 0.00 0.00 0.00 15 973.8
20260508074046 88 360 9.0 21.0 0.00 0.00 0.00 15 973.8
20260508073548 88 360 14.0 22.0 0.00 0.00 0.00 15 973.8
20260508073048 88 360 11.0 23.0 0.00 0.00 0.00 15 973.8
20260508072545 88 360 12.0 23.0 0.00 0.00 0.00 15 973.8
20260508072045 88 360 12.0 22.0 0.00 0.00 0.00 15 973.8
20260508071545 88 360 11.0 21.0 0.00 0.00 0.00 15 973.8
20260508071047 88 360 14.0 25.0 0.00 0.00 0.00 15 973.8
20260508070547 88 360 13.0 25.0 0.00 0.00 0.00 15 973.7
20260508070045 88 360 13.0 23.0 0.00 0.00 0.00 16 973.8
20260508065544 88 360 11.0 21.0 0.00 0.00 0.00 15 973.9
20260508065047 88 360 10.0 21.0 0.00 0.00 0.00 16 973.7
20260508064546 88 360 10.0 18.0 0.00 0.00 0.00 16 973.7
20260508064044 88 360 11.0 18.0 0.00 0.00 0.00 16 973.7
20260508063545 88 360 10.0 17.0 0.00 0.00 0.00 16 973.8
20260508063050 88 360 7.0 21.0 0.00 0.00 0.00 16 973.8
20260508062544 88 360 11.0 21.0 0.00 0.00 0.00 16 973.9
20260508062044 88 360 11.0 18.0 0.00 0.00 0.00 15 973.8
20260508061545 88 360 8.0 14.0 0.00 0.00 0.00 15 973.9
20260508061045 88 360 11.0 18.0 0.00 0.00 0.00 15 974.0
20260508060545 88 360 12.0 18.0 0.00 0.00 0.00 15 974.0
20260508060057 88 360 6.0 16.0 0.00 0.00 0.00 14 974.1
20260508055547 88 360 8.0 18.0 0.00 0.00 0.00 13 974.1
20260508055044 88 360 10.0 19.0 0.00 0.00 0.00 13 974.0
20260508054622 88 360 9.0 19.0 0.00 0.00 0.00 13 974.0
20260508054045 88 360 11.0 17.0 0.00 0.00 0.00 13 974.0
20260508053544 88 360 11.0 16.0 0.00 0.00 0.00 13 974.1
20260508053051 88 360 11.0 17.0 0.00 0.00 0.00 12 974.1
20260508052545 88 360 11.0 17.0 0.00 0.00 0.00 12 974.2
20260508052045 88 360 11.0 17.0 0.00 0.00 0.00 12 974.1
20260508051544 88 360 10.0 17.0 0.00 0.00 0.00 12 974.1
20260508051045 88 360 8.0 18.0 0.00 0.00 0.00 12 974.0
20260508050545 89 360 11.0 20.0 0.00 0.00 0.00 11 974.2
20260508050045 89 360 10.0 20.0 0.00 0.00 0.00 11 974.0
20260508045544 90 360 12.0 20.0 0.00 0.00 0.00 11 974.1
20260508045044 90 360 12.0 20.0 0.00 0.00 0.00 11 974.0
20260508044545 90 360 13.0 20.0 0.00 0.00 0.00 11 973.9
20260508044045 90 360 13.0 20.0 0.00 0.00 0.00 11 973.9
20260508043544 90 360 11.0 18.0 0.00 0.00 0.00 11 973.8
20260508043049 90 360 11.0 18.0 0.00 0.00 0.00 11 973.8
20260508042547 90 360 8.0 16.0 0.00 0.00 0.00 11 973.7
20260508042044 90 360 8.0 16.0 0.00 0.00 0.00 11 973.7
20260508041545 90 360 8.0 16.0 0.00 0.00 0.00 11 973.6
20260508041044 90 360 6.0 16.0 0.00 0.00 0.00 11 973.5
20260508040545 90 360 7.0 14.0 0.00 0.00 0.00 11 973.5
20260508040045 90 360 8.0 14.0 0.00 0.00 0.00 11 973.6
20260508035544 90 360 9.0 14.0 0.00 0.00 0.00 10 973.5
20260508035044 90 360 8.0 13.0 0.00 0.00 0.00 10 973.4
20260508034550 90 360 8.0 14.0 0.00 0.00 0.00 10 973.4
20260508034044 90 360 8.0 14.0 0.00 0.00 0.00 9 973.2
20260508033544 90 360 8.0 14.0 0.00 0.00 0.00 9 973.2
20260508033044 90 360 8.0 14.0 0.00 0.00 0.00 9 973.1
20260508032547 90 360 9.0 15.0 0.00 0.00 0.00 9 973.1
20260508032044 90 360 9.0 15.0 0.00 0.00 0.00 9 973.0
20260508031548 90 360 7.0 14.0 0.00 0.00 0.00 9 972.9
20260508031044 90 360 7.0 13.0 0.00 0.00 0.00 9 973.0
20260508030544 90 360 8.0 13.0 0.00 0.00 0.00 9 972.9
20260508030046 91 360 6.0 11.0 0.00 0.00 0.00 9 972.9
20260508025544 91 360 6.0 12.0 0.00 0.00 0.00 9 972.8
20260508025045 91 360 6.0 12.0 0.00 0.00 0.00 9 972.7
20260508024556 91 360 6.0 11.0 0.00 0.00 0.00 9 972.7
20260508024047 91 360 4.0 14.0 0.00 0.00 0.00 9 972.7
20260508023544 91 360 5.0 14.0 0.00 0.00 0.00 9 972.8
20260508023044 92 360 4.0 10.0 0.00 0.00 0.00 9 972.6
20260508022548 92 360 5.0 10.0 0.00 0.00 0.00 9 972.5
20260508022045 92 360 4.0 10.0 0.00 0.00 0.00 9 972.5
20260508021545 92 360 5.0 13.0 0.00 0.00 0.00 9 972.6
20260508021046 92 360 7.0 13.0 0.00 0.00 0.00 9 972.5
20260508020544 92 360 7.0 14.0 0.00 0.00 0.00 9 972.5
20260508020051 92 360 7.0 14.0 0.00 0.00 0.00 9 972.5
20260508015544 92 360 6.0 13.0 0.00 0.00 0.00 9 972.3
20260508015045 93 360 9.0 13.0 0.00 0.00 0.00 9 972.4
20260508014545 93 360 6.0 16.0 0.00 0.00 0.00 9 972.3
20260508014044 93 360 8.0 16.0 0.00 0.00 0.00 9 972.4
20260508013544 93 360 5.0 11.0 0.00 0.00 0.00 9 972.3
20260508013044 93 360 7.0 11.0 0.00 0.00 0.00 9 972.2
20260508012544 94 264 5.0 11.0 0.00 0.00 0.00 9 972.3
20260508012044 94 254 7.0 12.0 0.00 0.00 0.00 9 972.2
20260508011545 94 234 7.0 12.0 0.00 0.00 0.00 9 972.3
20260508011045 94 244 8.0 12.0 0.00 0.00 0.00 9 972.3
20260508010545 94 263 5.0 11.0 0.00 0.00 0.00 9 972.2
20260508010050 94 271 8.0 11.0 0.00 0.00 0.00 9 972.3
20260508005547 94 225 5.0 11.0 0.00 0.00 0.00 9 972.3
20260508005045 94 227 6.0 12.0 0.00 0.00 0.00 9 972.2
20260508004545 94 227 6.0 12.0 0.00 0.00 0.00 9 972.3
20260508004044 94 235 8.0 12.0 0.00 0.00 0.00 9 972.3
20260508003544 94 218 7.0 13.0 0.00 0.00 0.00 9 972.3
20260508003048 95 266 4.0 13.0 0.00 0.00 0.00 9 972.4
20260508002544 95 238 5.0 13.0 0.00 0.00 0.00 9 972.3
20260508002044 94 243 4.0 13.0 0.00 0.00 0.00 8 972.4
20260508001545 94 227 2.0 12.0 0.00 0.00 0.00 9 972.2
20260508001045 94 252 7.0 12.0 0.00 0.00 0.00 9 972.3
20260508000545 94 297 5.0 13.0 0.00 0.00 0.00 9 972.3
20260508000044 94 300 7.0 13.0 0.00 0.00 0.00 9 972.4
20260507235544 95 286 5.0 11.0 0.00 0.00 0.00 9 972.3
20260507235044 95 288 5.0 11.0 0.00 0.00 0.00 9 972.4
20260507234546 95 278 5.0 9.0 0.00 0.00 0.00 9 972.4
20260507234046 94 335 2.0 9.0 0.00 0.00 0.00 9 972.4
20260507233544 94 302 3.0 12.0 0.00 0.00 0.00 8 972.6
20260507233044 94 281 8.0 12.0 0.00 0.00 0.00 8 972.5
20260507232544 94 313 2.0 11.0 0.00 0.00 0.00 9 972.5
20260507232044 94 273 8.0 13.0 0.00 0.00 0.00 9 972.6
20260507231547 94 314 9.0 14.0 0.00 0.00 0.00 8 972.6
20260507231046 94 288 9.0 16.0 0.00 0.00 0.00 8 972.6
20260507230548 95 332 11.0 19.0 0.00 0.00 0.00 8 972.5
20260507230045 96 293 11.0 19.0 0.00 0.00 0.00 8 972.5
20260507225544 96 230 7.0 11.0 0.00 0.00 0.00 8 972.7
20260507225045 96 252 1.0 3.0 0.00 0.00 0.00 8 972.8
20260507224547 95 252 0.0 4.0 0.00 0.00 0.00 8 972.8
20260507224044 94 257 2.0 10.0 0.00 0.00 0.00 8 972.7
20260507223544 94 303 6.0 10.0 0.00 0.00 0.00 8 972.9
20260507223045 95 323 5.0 14.0 0.00 0.00 0.00 8 972.9
20260507222544 95 298 8.0 14.0 0.00 0.00 0.00 8 972.9
20260507222044 96 298 7.0 13.0 0.00 0.00 0.00 7 972.9
20260507221544 96 260 0.0 13.0 0.00 0.00 0.00 7 973.1
20260507221049 96 238 7.0 12.0 0.00 0.00 0.00 7 973.2
20260507220544 96 229 4.0 11.0 0.00 0.00 0.00 7 973.2
20260507220045 96 219 3.0 11.0 0.00 0.00 0.00 7 973.4
20260507215545 95 312 1.0 7.0 0.00 0.00 0.00 7 973.4
20260507215045 94 61 3.0 10.0 0.00 0.00 0.00 7 973.5
20260507214549 94 294 4.0 10.0 0.00 0.00 0.00 8 973.6
20260507214044 93 59 5.0 10.0 0.00 0.00 0.00 8 973.6
20260507213544 94 315 4.0 12.0 0.00 0.00 0.00 8 973.7